START_TIME,STEP,MOV.,M29,t_acc.,H22,t_acc.,H26,t_acc.,H30,t_acc.
1979-07-27 21:00:31.130 ,0,0,1.,24.0,0.,24.0,0.,24.0,0.,24.0
1979-07-27 21:00:55.130 ,0,1,0.,24.0,0.,24.0,0.,24.0,0.,24.0
1979-07-27 21:01:19.130 ,0,0,0.,24.0,0.,24.0,0.,24.0,0.,24.0
1979-07-27 21:01:43.130 ,1,1,1.,24.0,0.,24.0,0.,24.0,0.,24.0
1979-07-27 21:02:07.130 ,1,0,0.,24.0,0.,24.0,0.,24.0,0.,24.0
1979-07-27 21:02:31.130 ,2,1,0.,24.0,0.,24.0,0.,24.0,0.,24.0
1979-07-27 21:02:55.130 ,2,0,0.,24.0,0.,24.0,0.,24.0,0.,24.0
1979-07-27 21:03:19.130 ,3,1,0.,24.0,0.,24.0,0.,24.0,0.,24.0
1979-07-27 21:03:43.130 ,3,0,0.,24.0,0.,24.0,0.,24.0,0.,24.0
1979-07-27 21:04:07.130 ,4,1,0.,24.0,0.,24.0,0.,24.0,0.,24.0
1979-07-27 21:04:31.130 ,4,0,0.,24.0,0.,24.0,0.,24.0,0.,24.0
1979-07-27 21:04:55.130 ,5,1,0.,24.0,0.,24.0,0.,24.0,0.,24.0
1979-07-27 21:05:19.130 ,5,0,0.,24.0,0.,24.0,0.,24.0,0.,24.0
1979-07-27 21:05:43.130 ,6,1,0.,24.0,0.,24.0,0.,24.0,0.,24.0
1979-07-27 21:06:07.130 ,6,0,0.,24.0,0.,24.0,0.,24.0,0.,24.0
1979-07-27 21:06:31.130 ,7,0,0.,24.0,0.,24.0,0.,24.0,0.,24.0
1979-07-27 21:06:55.130 ,7,0,0.,24.0,0.,24.0,0.,24.0,0.,24.0
1979-07-27 21:07:19.130 ,5,1,0.,24.0,0.,24.0,0.,24.0,0.,24.0
1979-07-27 21:07:43.130 ,1,1,0.,24.0,0.,24.0,0.,24.0,0.,24.0
1979-07-27 21:08:07.130 ,2,1,0.,24.0,0.,24.0,0.,24.0,0.,24.0
1979-07-27 21:08:31.130 ,6,1,0.,24.0,0.,24.0,0.,24.0,0.,24.0
1979-07-27 21:08:55.130 ,5,1,0.,24.0,0.,24.0,0.,24.0,0.,24.0
1979-07-27 21:09:19.130 ,1,1,0.,24.0,0.,24.0,0.,24.0,0.,24.0
1979-07-27 21:09:43.130 ,2,1,0.,24.0,0.,24.0,0.,24.0,0.,24.0
1979-07-27 21:10:07.130 ,6,1,0.,24.0,0.,24.0,0.,24.0,0.,24.0
1979-07-27 21:10:31.130 ,5,1,0.,24.0,0.,24.0,0.,24.0,0.,24.0
1979-07-27 21:10:55.130 ,1,1,0.,24.0,0.,24.0,0.,24.0,0.,24.0
1979-07-27 21:11:19.130 ,2,1,0.,24.0,0.,24.0,0.,24.0,0.,24.0
1979-07-27 21:11:43.130 ,6,1,0.,24.0,0.,24.0,0.,24.0,0.,24.0
1979-07-27 21:12:07.130 ,5,1,0.,24.0,0.,24.0,0.,24.0,0.,24.0
1979-07-27 21:12:31.130 ,1,1,0.,24.0,0.,24.0,0.,24.0,0.,24.0
1979-07-27 21:12:55.130 ,2,1,0.,24.0,0.,24.0,0.,24.0,0.,24.0
1979-07-27 21:13:19.130 ,6,1,0.,24.0,0.,24.0,0.,24.0,0.,24.0
1979-07-27 21:13:43.130 ,5,1,0.,24.0,0.,24.0,0.,24.0,0.,24.0
1979-07-27 21:14:07.130 ,1,1,0.,24.0,0.,24.0,0.,24.0,0.,24.0
1979-07-27 21:14:31.130 ,2,1,0.,24.0,0.,24.0,0.,24.0,0.,24.0
1979-07-27 21:14:55.130 ,6,1,0.,24.0,0.,24.0,0.,24.0,0.,24.0
1979-07-27 21:15:19.130 ,5,1,0.,24.0,0.,24.0,0.,24.0,0.,24.0
1979-07-27 21:15:43.130 ,1,1,0.,24.0,0.,24.0,0.,24.0,0.,24.0
1979-07-27 21:16:07.130 ,2,1,0.,24.0,0.,24.0,0.,24.0,0.,24.0
1979-07-27 21:16:31.130 ,6,1,0.,24.0,0.,24.0,0.,24.0,0.,24.0
1979-07-27 21:16:55.130 ,5,1,0.,24.0,0.,24.0,0.,24.0,0.,24.0
1979-07-27 21:17:19.130 ,1,1,0.,24.0,0.,24.0,0.,24.0,0.,24.0
1979-07-27 21:17:43.130 ,0,0,0.,24.0,0.,24.0,0.,24.0,0.,24.0
1979-07-27 21:18:07.130 ,0,0,0.,24.0,0.,24.0,0.,24.0,0.,24.0
1979-07-27 21:18:31.130 ,5,1,0.,24.0,0.,24.0,0.,24.0,0.,24.0
1979-07-27 21:18:55.130 ,5,0,0.,24.0,0.,24.0,0.,24.0,0.,24.0
1979-07-27 21:19:19.130 ,4,1,0.,24.0,0.,24.0,0.,24.0,0.,24.0
1979-07-27 21:19:43.130 ,4,0,0.,24.0,0.,24.0,0.,24.0,0.,24.0
1979-07-27 21:20:07.130 ,3,1,0.,24.0,0.,24.0,0.,24.0,0.,24.0
1979-07-27 21:20:31.130 ,3,0,0.,24.0,0.,24.0,0.,24.0,0.,24.0
1979-07-27 21:20:55.130 ,2,1,0.,24.0,0.,24.0,0.,24.0,0.,24.0
1979-07-27 21:21:19.130 ,2,0,0.,24.0,0.,24.0,0.,24.0,0.,24.0
1979-07-27 21:21:43.130 ,1,1,0.,24.0,0.,24.0,0.,24.0,0.,24.0
1979-07-27 21:22:07.130 ,1,0,0.,24.0,0.,24.0,0.,24.0,0.,24.0
1979-07-27 21:22:31.130 ,0,1,0.,24.0,0.,24.0,0.,24.0,0.,24.0
1979-07-27 21:22:55.130 ,0,0,0.,24.0,0.,24.0,0.,24.0,0.,24.0
1979-07-27 21:23:19.130 ,0,1,0.,24.0,0.,24.0,0.,24.0,0.,24.0
1979-07-27 21:23:43.130 ,0,0,0.,24.0,0.,24.0,0.,24.0,0.,24.0
1979-07-27 21:24:07.130 ,1,1,0.,24.0,0.,24.0,0.,24.0,0.,24.0
1979-07-27 21:24:31.130 ,1,0,0.,24.0,0.,24.0,0.,24.0,0.,24.0
1979-07-27 21:24:55.130 ,2,1,0.,24.0,0.,24.0,0.,24.0,0.,24.0
1979-07-27 21:25:19.130 ,2,0,1.,24.0,0.,24.0,0.,24.0,0.,24.0
1979-07-27 21:25:43.130 ,3,1,0.,24.0,0.,24.0,0.,24.0,0.,24.0
1979-07-27 21:26:07.130 ,3,0,0.,24.0,0.,24.0,0.,24.0,0.,24.0
1979-07-27 21:26:31.130 ,4,1,0.,24.0,0.,24.0,0.,24.0,0.,24.0
1979-07-27 21:26:55.130 ,4,0,0.,24.0,0.,24.0,0.,24.0,0.,24.0
1979-07-27 21:27:19.130 ,5,1,0.,24.0,0.,24.0,0.,24.0,0.,24.0
1979-07-27 21:27:43.130 ,5,0,0.,24.0,0.,24.0,0.,24.0,0.,24.0
1979-07-27 21:28:07.130 ,6,1,0.,24.0,0.,24.0,0.,24.0,0.,24.0
1979-07-27 21:28:31.130 ,6,0,0.,24.0,0.,24.0,0.,24.0,0.,24.0
1979-07-27 21:28:55.130 ,7,1,0.,24.0,0.,24.0,0.,24.0,0.,24.0
1979-07-27 21:29:19.130 ,7,0,0.,24.0,0.,24.0,0.,24.0,0.,24.0
1979-07-27 21:29:43.130 ,7,1,0.,24.0,0.,24.0,0.,24.0,0.,24.0
1979-07-27 21:30:07.130 ,7,0,0.,24.0,0.,24.0,0.,24.0,0.,24.0
1979-07-27 21:30:31.130 ,6,1,0.,24.0,0.,24.0,0.,24.0,0.,24.0
1979-07-27 21:30:55.130 ,6,0,0.,24.0,0.,24.0,0.,24.0,0.,24.0
1979-07-27 21:31:19.130 ,5,1,0.,24.0,0.,24.0,0.,24.0,0.,24.0
1979-07-27 21:31:43.130 ,5,0,0.,24.0,0.,24.0,0.,24.0,0.,24.0
1979-07-27 21:32:07.130 ,4,1,0.,24.0,0.,24.0,0.,24.0,0.,24.0
1979-07-27 21:32:31.130 ,4,0,0.,24.0,0.,24.0,0.,24.0,0.,24.0
1979-07-27 21:32:55.130 ,3,1,0.,24.0,0.,24.0,0.,24.0,0.,24.0
1979-07-27 21:33:19.130 ,3,0,0.,24.0,0.,24.0,0.,24.0,0.,24.0
1979-07-27 21:33:43.130 ,2,1,0.,24.0,0.,24.0,0.,24.0,0.,24.0
1979-07-27 21:34:07.130 ,2,0,0.,24.0,0.,24.0,0.,24.0,0.,24.0
1979-07-27 21:34:31.130 ,1,1,0.,24.0,0.,24.0,0.,24.0,0.,24.0
1979-07-27 21:34:55.130 ,1,0,0.,24.0,0.,24.0,0.,24.0,0.,24.0
1979-07-27 21:35:19.130 ,0,1,0.,24.0,0.,24.0,0.,24.0,0.,24.0
1979-07-27 21:35:43.130 ,0,0,1.,24.0,0.,24.0,0.,24.0,0.,24.0
1979-07-27 21:36:07.130 ,0,1,0.,24.0,0.,24.0,0.,24.0,0.,24.0
1979-07-27 21:36:31.130 ,0,0,0.,24.0,0.,24.0,0.,24.0,0.,24.0
1979-07-27 21:36:55.130 ,1,1,0.,24.0,0.,24.0,0.,24.0,0.,24.0
1979-07-27 21:37:19.130 ,1,0,0.,24.0,0.,24.0,0.,24.0,0.,24.0
1979-07-27 21:37:43.130 ,2,1,0.,24.0,0.,24.0,0.,24.0,0.,24.0
1979-07-27 21:38:07.130 ,2,0,1.,24.0,0.,24.0,0.,24.0,0.,24.0
1979-07-27 21:38:31.130 ,3,1,0.,24.0,0.,24.0,0.,24.0,0.,24.0
1979-07-27 21:38:55.130 ,3,0,0.,24.0,0.,24.0,0.,24.0,0.,24.0
1979-07-27 21:39:19.130 ,4,1,0.,24.0,0.,24.0,0.,24.0,0.,24.0
1979-07-27 21:39:43.130 ,4,0,0.,24.0,0.,24.0,0.,24.0,0.,24.0
1979-07-27 21:40:07.130 ,5,1,0.,24.0,0.,24.0,0.,24.0,0.,24.0
1979-07-27 21:40:31.130 ,5,0,0.,24.0,0.,24.0,0.,24.0,0.,24.0
1979-07-27 21:40:55.130 ,6,1,0.,24.0,0.,24.0,0.,24.0,0.,24.0
1979-07-27 21:41:19.130 ,6,0,0.,24.0,0.,24.0,0.,24.0,0.,24.0
1979-07-27 21:41:43.130 ,7,1,0.,24.0,0.,24.0,0.,24.0,0.,24.0
1979-07-27 21:42:07.130 ,7,0,0.,24.0,0.,24.0,0.,24.0,0.,24.0
1979-07-27 21:42:31.130 ,7,1,0.,24.0,0.,24.0,0.,24.0,0.,24.0
1979-07-27 21:42:55.130 ,7,0,0.,24.0,0.,24.0,0.,24.0,0.,24.0
1979-07-27 21:43:19.130 ,6,1,0.,24.0,0.,24.0,0.,24.0,0.,24.0
1979-07-27 21:43:43.130 ,6,0,0.,24.0,0.,24.0,0.,24.0,0.,24.0
1979-07-27 21:44:07.130 ,5,1,0.,24.0,0.,24.0,0.,24.0,0.,24.0
1979-07-27 21:44:31.130 ,5,0,0.,24.0,0.,24.0,0.,24.0,0.,24.0
1979-07-27 21:44:55.130 ,4,1,0.,24.0,0.,24.0,0.,24.0,0.,24.0
1979-07-27 21:45:19.130 ,4,0,0.,24.0,0.,24.0,0.,24.0,0.,24.0
1979-07-27 21:45:43.130 ,3,1,0.,24.0,0.,24.0,0.,24.0,0.,24.0
1979-07-27 21:46:07.130 ,3,0,0.,24.0,0.,24.0,0.,24.0,0.,24.0
1979-07-27 21:46:31.130 ,2,1,0.,24.0,0.,24.0,0.,24.0,0.,24.0
1979-07-27 21:46:55.130 ,2,0,0.,24.0,0.,24.0,0.,24.0,0.,24.0
1979-07-27 21:47:19.130 ,1,1,0.,24.0,0.,24.0,0.,24.0,0.,24.0
1979-07-27 21:47:43.130 ,1,0,0.,24.0,0.,24.0,0.,24.0,0.,24.0
1979-07-27 21:48:07.130 ,0,1,0.,24.0,0.,24.0,0.,24.0,0.,24.0
1979-07-27 21:48:31.130 ,0,0,0.,24.0,0.,24.0,0.,24.0,0.,24.0
1979-07-27 21:48:55.130 ,0,1,0.,24.0,0.,24.0,0.,24.0,0.,24.0
1979-07-27 21:49:19.130 ,0,0,0.,24.0,0.,24.0,0.,24.0,0.,24.0
1979-07-27 21:49:43.130 ,1,1,0.,24.0,0.,24.0,0.,24.0,0.,24.0
1979-07-27 21:50:07.130 ,1,0,0.,24.0,0.,24.0,0.,24.0,0.,24.0
1979-07-27 21:50:31.130 ,2,1,0.,24.0,0.,24.0,0.,24.0,0.,24.0
1979-07-27 21:50:55.130 ,2,0,0.,24.0,0.,24.0,0.,24.0,0.,24.0
1979-07-27 21:51:19.130 ,3,1,0.,24.0,0.,24.0,0.,24.0,0.,24.0
1979-07-27 21:51:43.130 ,3,0,0.,24.0,0.,24.0,0.,24.0,0.,24.0
1979-07-27 21:52:07.130 ,4,1,0.,24.0,0.,24.0,0.,24.0,0.,24.0
1979-07-27 21:52:31.130 ,4,0,0.,24.0,0.,24.0,0.,24.0,0.,24.0
1979-07-27 21:52:55.130 ,5,1,0.,24.0,0.,24.0,0.,24.0,0.,24.0
1979-07-27 21:53:19.130 ,5,0,0.,24.0,0.,24.0,0.,24.0,0.,24.0
1979-07-27 21:53:43.130 ,6,1,0.,24.0,0.,24.0,0.,24.0,0.,24.0
1979-07-27 21:54:07.130 ,6,0,0.,24.0,0.,24.0,0.,24.0,0.,24.0
1979-07-27 21:54:31.130 ,7,0,0.,24.0,0.,24.0,0.,24.0,0.,24.0
1979-07-27 21:54:55.130 ,7,0,0.,24.0,0.,24.0,0.,24.0,0.,24.0
1979-07-27 21:55:19.130 ,5,1,0.,24.0,0.,24.0,0.,24.0,0.,24.0
1979-07-27 21:55:43.130 ,1,1,0.,24.0,0.,24.0,0.,24.0,0.,24.0
1979-07-27 21:56:07.130 ,2,1,0.,24.0,0.,24.0,0.,24.0,0.,24.0
1979-07-27 21:56:31.130 ,6,1,0.,24.0,0.,24.0,0.,24.0,0.,24.0
1979-07-27 21:56:55.130 ,5,1,0.,24.0,0.,24.0,0.,24.0,0.,24.0
1979-07-27 21:57:19.130 ,1,1,0.,24.0,0.,24.0,0.,24.0,0.,24.0
1979-07-27 21:57:43.130 ,2,1,0.,24.0,0.,24.0,0.,24.0,0.,24.0
1979-07-27 21:58:07.130 ,6,1,1.,24.0,0.,24.0,0.,24.0,0.,24.0
1979-07-27 21:58:31.130 ,5,1,0.,24.0,0.,24.0,0.,24.0,0.,24.0
1979-07-27 21:58:55.130 ,1,1,0.,24.0,0.,24.0,0.,24.0,0.,24.0
1979-07-27 21:59:19.130 ,2,1,0.,24.0,0.,24.0,0.,24.0,0.,24.0
1979-07-27 21:59:43.130 ,6,1,0.,24.0,0.,24.0,0.,24.0,0.,24.0
1979-07-27 22:00:07.130 ,5,1,0.,24.0,0.,24.0,0.,24.0,0.,24.0
1979-07-27 22:00:31.130 ,1,1,0.,24.0,0.,24.0,0.,24.0,0.,24.0
1979-07-27 22:00:55.130 ,2,1,0.,24.0,0.,24.0,0.,24.0,0.,24.0
1979-07-27 22:01:19.130 ,6,1,0.,24.0,0.,24.0,0.,24.0,0.,24.0
1979-07-27 22:01:43.130 ,5,1,0.,24.0,0.,24.0,0.,24.0,0.,24.0
1979-07-27 22:02:07.130 ,1,1,0.,24.0,0.,24.0,0.,24.0,0.,24.0
1979-07-27 22:02:31.130 ,2,1,0.,24.0,0.,24.0,0.,24.0,0.,24.0
1979-07-27 22:02:55.130 ,6,1,0.,24.0,0.,24.0,0.,24.0,0.,24.0
1979-07-27 22:03:19.130 ,5,1,0.,24.0,0.,24.0,0.,24.0,0.,24.0
1979-07-27 22:03:43.130 ,1,1,0.,24.0,0.,24.0,0.,24.0,0.,24.0
1979-07-27 22:04:07.130 ,2,1,0.,24.0,0.,24.0,0.,24.0,0.,24.0
1979-07-27 22:04:31.130 ,6,1,0.,24.0,0.,24.0,0.,24.0,0.,24.0
1979-07-27 22:04:55.130 ,5,1,0.,24.0,0.,24.0,0.,24.0,0.,24.0
1979-07-27 22:05:19.130 ,1,1,0.,24.0,0.,24.0,0.,24.0,0.,24.0
1979-07-27 22:05:43.130 ,0,0,0.,24.0,0.,24.0,0.,24.0,0.,24.0
1979-07-27 22:06:07.130 ,0,0,0.,24.0,0.,24.0,0.,24.0,0.,24.0
1979-07-27 22:06:31.130 ,5,1,0.,24.0,0.,24.0,0.,24.0,0.,24.0
1979-07-27 22:06:55.130 ,5,0,0.,24.0,0.,24.0,0.,24.0,0.,24.0
1979-07-27 22:07:19.130 ,4,1,0.,24.0,0.,24.0,0.,24.0,0.,24.0
1979-07-27 22:07:43.130 ,4,0,0.,24.0,0.,24.0,0.,24.0,0.,24.0
1979-07-27 22:08:07.130 ,3,1,0.,24.0,0.,24.0,0.,24.0,0.,24.0
1979-07-27 22:08:31.130 ,3,0,0.,24.0,0.,24.0,0.,24.0,0.,24.0
1979-07-27 22:08:55.130 ,2,1,0.,24.0,0.,24.0,0.,24.0,0.,24.0
1979-07-27 22:09:19.130 ,2,0,0.,24.0,0.,24.0,0.,24.0,0.,24.0
1979-07-27 22:09:43.130 ,1,1,0.,24.0,0.,24.0,0.,24.0,0.,24.0
1979-07-27 22:10:07.130 ,1,0,0.,24.0,0.,24.0,0.,24.0,0.,24.0
1979-07-27 22:10:31.130 ,0,1,0.,24.0,0.,24.0,0.,24.0,0.,24.0
1979-07-27 22:10:55.130 ,0,0,0.,24.0,0.,24.0,0.,24.0,0.,24.0
1979-07-27 22:11:19.130 ,0,1,0.,24.0,0.,24.0,0.,24.0,0.,24.0
1979-07-27 22:11:43.130 ,0,0,0.,24.0,0.,24.0,0.,24.0,0.,24.0
1979-07-27 22:12:07.130 ,1,1,1.,24.0,0.,24.0,0.,24.0,0.,24.0
1979-07-27 22:12:31.130 ,1,0,0.,24.0,0.,24.0,0.,24.0,0.,24.0
1979-07-27 22:12:55.130 ,2,1,0.,24.0,0.,24.0,0.,24.0,0.,24.0
1979-07-27 22:13:19.130 ,2,0,0.,24.0,0.,24.0,0.,24.0,0.,24.0
1979-07-27 22:13:43.130 ,3,1,0.,24.0,0.,24.0,0.,24.0,0.,24.0
1979-07-27 22:14:07.130 ,3,0,0.,24.0,0.,24.0,0.,24.0,0.,24.0
1979-07-27 22:14:31.130 ,4,1,0.,24.0,0.,24.0,0.,24.0,0.,24.0
1979-07-27 22:14:55.130 ,4,0,0.,24.0,0.,24.0,0.,24.0,0.,24.0
1979-07-27 22:15:19.130 ,5,1,0.,24.0,0.,24.0,0.,24.0,0.,24.0
1979-07-27 22:15:43.130 ,5,0,0.,24.0,0.,24.0,0.,24.0,0.,24.0
1979-07-27 22:16:07.130 ,6,1,0.,24.0,0.,24.0,0.,24.0,0.,24.0
1979-07-27 22:16:31.130 ,6,0,0.,24.0,0.,24.0,0.,24.0,0.,24.0
1979-07-27 22:16:55.130 ,7,1,0.,24.0,0.,24.0,0.,24.0,0.,24.0
1979-07-27 22:17:19.130 ,7,0,0.,24.0,0.,24.0,0.,24.0,0.,24.0
1979-07-27 22:17:43.130 ,7,1,0.,24.0,0.,24.0,0.,24.0,0.,24.0
1979-07-27 22:18:07.130 ,7,0,0.,24.0,0.,24.0,0.,24.0,0.,24.0
1979-07-27 22:18:31.130 ,6,1,0.,24.0,0.,24.0,0.,24.0,0.,24.0
1979-07-27 22:18:55.130 ,6,0,0.,24.0,0.,24.0,0.,24.0,0.,24.0
1979-07-27 22:19:19.130 ,5,1,0.,24.0,0.,24.0,0.,24.0,0.,24.0
1979-07-27 22:19:43.130 ,5,0,0.,24.0,0.,24.0,0.,24.0,0.,24.0
1979-07-27 22:20:07.130 ,4,1,0.,24.0,0.,24.0,0.,24.0,0.,24.0
1979-07-27 22:20:31.130 ,4,0,0.,24.0,0.,24.0,0.,24.0,0.,24.0
1979-07-27 22:20:55.130 ,3,1,0.,24.0,0.,24.0,0.,24.0,0.,24.0
1979-07-27 22:21:19.130 ,3,0,0.,24.0,0.,24.0,0.,24.0,0.,24.0
1979-07-27 22:21:43.130 ,2,1,0.,24.0,0.,24.0,0.,24.0,0.,24.0
1979-07-27 22:22:07.130 ,2,0,0.,24.0,0.,24.0,0.,24.0,0.,24.0
1979-07-27 22:22:31.130 ,1,1,0.,24.0,0.,24.0,0.,24.0,0.,24.0
1979-07-27 22:22:55.130 ,1,0,0.,24.0,0.,24.0,0.,24.0,0.,24.0
1979-07-27 22:23:19.130 ,0,1,0.,24.0,0.,24.0,0.,24.0,0.,24.0
1979-07-27 22:23:43.130 ,0,0,0.,24.0,0.,24.0,0.,24.0,0.,24.0
1979-07-27 22:24:07.130 ,0,1,0.,24.0,0.,24.0,0.,24.0,0.,24.0
1979-07-27 22:24:31.130 ,0,0,0.,24.0,0.,24.0,0.,24.0,0.,24.0
1979-07-27 22:24:55.130 ,1,1,0.,24.0,0.,24.0,0.,24.0,0.,24.0
1979-07-27 22:25:19.130 ,1,0,0.,24.0,0.,24.0,0.,24.0,0.,24.0
1979-07-27 22:25:43.130 ,2,1,0.,24.0,0.,24.0,0.,24.0,0.,24.0
1979-07-27 22:26:07.130 ,2,0,0.,24.0,0.,24.0,0.,24.0,0.,24.0
1979-07-27 22:26:31.130 ,3,1,0.,24.0,0.,24.0,0.,24.0,0.,24.0
1979-07-27 22:26:55.130 ,3,0,0.,24.0,0.,24.0,0.,24.0,0.,24.0
1979-07-27 22:27:19.130 ,4,1,0.,24.0,0.,24.0,0.,24.0,0.,24.0
1979-07-27 22:27:43.130 ,4,0,0.,24.0,0.,24.0,0.,24.0,0.,24.0
1979-07-27 22:28:07.130 ,5,1,0.,24.0,0.,24.0,0.,24.0,0.,24.0
1979-07-27 22:28:31.130 ,5,0,0.,24.0,0.,24.0,0.,24.0,0.,24.0
1979-07-27 22:28:55.130 ,6,1,0.,24.0,0.,24.0,0.,24.0,0.,24.0
1979-07-27 22:29:19.130 ,6,0,0.,24.0,0.,24.0,0.,24.0,0.,24.0
1979-07-27 22:29:43.130 ,7,1,0.,24.0,0.,24.0,0.,24.0,0.,24.0
1979-07-27 22:30:07.130 ,7,0,0.,24.0,0.,24.0,0.,24.0,0.,24.0
1979-07-27 22:30:31.130 ,7,1,0.,24.0,0.,24.0,0.,24.0,0.,24.0
1979-07-27 22:30:55.130 ,7,0,0.,24.0,0.,24.0,0.,24.0,0.,24.0
1979-07-27 22:31:19.130 ,6,1,0.,24.0,0.,24.0,0.,24.0,0.,24.0
1979-07-27 22:31:43.130 ,6,0,0.,24.0,0.,24.0,0.,24.0,0.,24.0
1979-07-27 22:32:07.130 ,5,1,0.,24.0,0.,24.0,0.,24.0,0.,24.0
1979-07-27 22:32:31.130 ,5,0,0.,24.0,0.,24.0,0.,24.0,0.,24.0
1979-07-27 22:32:55.130 ,4,1,0.,24.0,0.,24.0,0.,24.0,0.,24.0
1979-07-27 22:33:19.130 ,4,0,0.,24.0,0.,24.0,0.,24.0,0.,24.0
1979-07-27 22:33:43.130 ,3,1,0.,24.0,0.,24.0,0.,24.0,0.,24.0
1979-07-27 22:34:07.130 ,3,0,0.,24.0,0.,24.0,0.,24.0,0.,24.0
1979-07-27 22:34:31.130 ,2,1,0.,24.0,0.,24.0,0.,24.0,0.,24.0
1979-07-27 22:34:55.130 ,2,0,0.,24.0,0.,24.0,0.,24.0,0.,24.0
1979-07-27 22:35:19.130 ,1,1,0.,24.0,0.,24.0,0.,24.0,0.,24.0
1979-07-27 22:35:43.130 ,1,0,0.,24.0,0.,24.0,0.,24.0,0.,24.0
1979-07-27 22:36:07.130 ,0,1,1.,24.0,0.,24.0,0.,24.0,0.,24.0
1979-07-27 22:36:31.130 ,0,0,0.,24.0,0.,24.0,0.,24.0,0.,24.0
1979-07-27 22:36:55.130 ,0,1,0.,24.0,0.,24.0,0.,24.0,0.,24.0
1979-07-27 22:37:19.130 ,0,0,0.,24.0,0.,24.0,0.,24.0,0.,24.0
1979-07-27 22:37:43.130 ,1,1,0.,24.0,0.,24.0,0.,24.0,0.,24.0
1979-07-27 22:38:07.130 ,1,0,0.,24.0,0.,24.0,0.,24.0,0.,24.0
1979-07-27 22:38:31.130 ,2,1,0.,24.0,0.,24.0,0.,24.0,0.,24.0
1979-07-27 22:38:55.130 ,2,0,0.,24.0,0.,24.0,0.,24.0,0.,24.0
1979-07-27 22:39:19.130 ,3,1,0.,24.0,0.,24.0,0.,24.0,0.,24.0
1979-07-27 22:39:43.130 ,3,0,1.,24.0,0.,24.0,0.,24.0,0.,24.0
1979-07-27 22:40:07.130 ,4,1,0.,24.0,0.,24.0,0.,24.0,0.,24.0
1979-07-27 22:40:31.130 ,4,0,0.,24.0,0.,24.0,0.,24.0,0.,24.0
1979-07-27 22:40:55.130 ,5,1,0.,24.0,0.,24.0,0.,24.0,0.,24.0
1979-07-27 22:41:19.130 ,5,0,0.,24.0,0.,24.0,0.,24.0,0.,24.0
1979-07-27 22:41:43.130 ,6,1,0.,24.0,0.,24.0,0.,24.0,0.,24.0
1979-07-27 22:42:07.130 ,6,0,0.,24.0,0.,24.0,0.,24.0,0.,24.0
1979-07-27 22:42:31.130 ,7,0,1.,24.0,0.,24.0,0.,24.0,0.,24.0
1979-07-27 22:42:55.130 ,7,0,0.,24.0,0.,24.0,0.,24.0,0.,24.0
1979-07-27 22:43:19.130 ,5,1,0.,24.0,0.,24.0,0.,24.0,0.,24.0
1979-07-27 22:43:43.130 ,1,1,0.,24.0,0.,24.0,0.,24.0,0.,24.0
1979-07-27 22:44:07.130 ,2,1,0.,24.0,0.,24.0,0.,24.0,0.,24.0
1979-07-27 22:44:31.130 ,6,1,0.,24.0,0.,24.0,0.,24.0,0.,24.0
1979-07-27 22:44:55.130 ,5,1,0.,24.0,0.,24.0,0.,24.0,0.,24.0
1979-07-27 22:45:19.130 ,1,1,0.,24.0,0.,24.0,0.,24.0,0.,24.0
1979-07-27 22:45:43.130 ,2,1,0.,24.0,0.,24.0,0.,24.0,0.,24.0
1979-07-27 22:46:07.130 ,6,1,0.,24.0,0.,24.0,0.,24.0,0.,24.0
1979-07-27 22:46:31.130 ,5,1,0.,24.0,0.,24.0,0.,24.0,0.,24.0
1979-07-27 22:46:55.130 ,1,1,0.,24.0,0.,24.0,0.,24.0,0.,24.0
1979-07-27 22:47:19.130 ,2,1,0.,24.0,0.,24.0,0.,24.0,0.,24.0
1979-07-27 22:47:43.130 ,6,1,0.,24.0,0.,24.0,0.,24.0,0.,24.0
1979-07-27 22:48:07.130 ,5,1,0.,24.0,0.,24.0,0.,24.0,0.,24.0
1979-07-27 22:48:31.130 ,1,1,0.,24.0,0.,24.0,0.,24.0,0.,24.0
1979-07-27 22:48:55.130 ,2,1,0.,24.0,0.,24.0,0.,24.0,0.,24.0
1979-07-27 22:49:19.130 ,6,1,0.,24.0,0.,24.0,0.,24.0,0.,24.0
1979-07-27 22:49:43.130 ,5,1,0.,24.0,0.,24.0,0.,24.0,0.,24.0
1979-07-27 22:50:07.130 ,1,1,0.,24.0,0.,24.0,0.,24.0,0.,24.0
1979-07-27 22:50:31.130 ,2,1,0.,24.0,0.,24.0,0.,24.0,0.,24.0
1979-07-27 22:50:55.130 ,6,1,0.,24.0,0.,24.0,0.,24.0,0.,24.0
1979-07-27 22:51:19.130 ,5,1,0.,24.0,0.,24.0,0.,24.0,0.,24.0
1979-07-27 22:51:43.130 ,1,1,0.,24.0,0.,24.0,0.,24.0,0.,24.0
1979-07-27 22:52:07.130 ,2,1,0.,24.0,0.,24.0,0.,24.0,0.,24.0
1979-07-27 22:52:31.130 ,6,1,0.,24.0,0.,24.0,0.,24.0,0.,24.0
1979-07-27 22:52:55.130 ,5,1,0.,24.0,0.,24.0,0.,24.0,0.,24.0
1979-07-27 22:53:19.130 ,1,1,0.,24.0,0.,24.0,0.,24.0,0.,24.0
1979-07-27 22:53:43.130 ,0,0,0.,24.0,0.,24.0,0.,24.0,0.,24.0
1979-07-27 22:54:07.130 ,0,0,0.,24.0,0.,24.0,0.,24.0,0.,24.0
1979-07-27 22:54:31.130 ,5,1,0.,24.0,0.,24.0,0.,24.0,0.,24.0
1979-07-27 22:54:55.130 ,5,0,0.,24.0,0.,24.0,0.,24.0,0.,24.0
1979-07-27 22:55:19.130 ,4,1,0.,24.0,0.,24.0,0.,24.0,0.,24.0
1979-07-27 22:55:43.130 ,4,0,0.,24.0,0.,24.0,0.,24.0,0.,24.0
1979-07-27 22:56:07.130 ,3,1,0.,24.0,0.,24.0,0.,24.0,0.,24.0
1979-07-27 22:56:31.130 ,3,0,0.,24.0,0.,24.0,0.,24.0,0.,24.0
1979-07-27 22:56:55.130 ,2,1,0.,24.0,0.,24.0,0.,24.0,0.,24.0
1979-07-27 22:57:19.130 ,2,0,0.,24.0,0.,24.0,0.,24.0,0.,24.0
1979-07-27 22:57:43.130 ,1,1,0.,24.0,0.,24.0,0.,24.0,0.,24.0
1979-07-27 22:58:07.130 ,1,0,0.,24.0,0.,24.0,0.,24.0,0.,24.0
1979-07-27 22:58:31.130 ,0,1,0.,24.0,0.,24.0,0.,24.0,0.,24.0
1979-07-27 22:58:55.130 ,0,0,0.,24.0,0.,24.0,0.,24.0,0.,24.0
1979-07-27 22:59:19.130 ,0,1,0.,24.0,0.,24.0,0.,24.0,0.,24.0
1979-07-27 22:59:43.130 ,0,0,0.,24.0,0.,24.0,0.,24.0,0.,24.0
1979-07-27 23:00:07.130 ,1,1,0.,24.0,0.,24.0,0.,24.0,0.,24.0
1979-07-27 23:00:31.130 ,1,0,0.,24.0,0.,24.0,0.,24.0,0.,24.0
1979-07-27 23:00:55.130 ,2,1,0.,24.0,0.,24.0,0.,24.0,0.,24.0
1979-07-27 23:01:19.130 ,2,0,0.,24.0,0.,24.0,0.,24.0,0.,24.0
1979-07-27 23:01:43.130 ,3,1,0.,24.0,0.,24.0,0.,24.0,0.,24.0
1979-07-27 23:02:07.130 ,3,0,0.,24.0,0.,24.0,0.,24.0,0.,24.0
1979-07-27 23:02:31.130 ,4,1,0.,24.0,0.,24.0,0.,24.0,0.,24.0
1979-07-27 23:02:55.130 ,4,0,0.,24.0,0.,24.0,0.,24.0,0.,24.0
1979-07-27 23:03:19.130 ,5,1,0.,24.0,0.,24.0,0.,24.0,0.,24.0
1979-07-27 23:03:43.130 ,5,0,0.,24.0,0.,24.0,0.,24.0,0.,24.0
1979-07-27 23:04:07.130 ,6,1,0.,24.0,0.,24.0,0.,24.0,0.,24.0
1979-07-27 23:04:31.130 ,6,0,0.,24.0,0.,24.0,0.,24.0,0.,24.0
1979-07-27 23:04:55.130 ,7,1,0.,24.0,0.,24.0,0.,24.0,0.,24.0
1979-07-27 23:05:19.130 ,7,0,1.,24.0,0.,24.0,0.,24.0,0.,24.0
1979-07-27 23:05:43.130 ,7,1,0.,24.0,0.,24.0,0.,24.0,0.,24.0
1979-07-27 23:06:07.130 ,7,0,0.,24.0,0.,24.0,0.,24.0,0.,24.0
1979-07-27 23:06:31.130 ,6,1,0.,24.0,0.,24.0,0.,24.0,0.,24.0
1979-07-27 23:06:55.130 ,0,0,0.,24.0,0.,24.0,0.,24.0,0.,24.0
1979-07-27 23:08:07.130 ,0,0,0.,24.0,0.,24.0,0.,24.0,0.,24.0
1979-07-27 23:08:31.130 ,0,0,0.,24.0,0.,24.0,0.,24.0,0.,24.0
1979-07-27 23:08:55.130 ,3,1,0.,24.0,0.,24.0,0.,24.0,0.,24.0
1979-07-27 23:09:19.130 ,3,0,0.,24.0,0.,24.0,0.,24.0,0.,24.0
1979-07-27 23:09:43.130 ,2,1,0.,24.0,0.,24.0,0.,24.0,0.,24.0
1979-07-27 23:10:07.130 ,2,0,0.,24.0,0.,24.0,0.,24.0,0.,24.0
1979-07-27 23:10:31.130 ,1,1,0.,24.0,0.,24.0,0.,24.0,0.,24.0
1979-07-27 23:10:55.130 ,1,0,0.,24.0,0.,24.0,0.,24.0,0.,24.0
1979-07-27 23:11:19.130 ,0,1,0.,24.0,0.,24.0,0.,24.0,0.,24.0
1979-07-27 23:11:43.130 ,0,0,0.,24.0,0.,24.0,0.,24.0,0.,24.0
1979-07-27 23:12:07.130 ,0,1,0.,24.0,0.,24.0,0.,24.0,0.,24.0
1979-07-27 23:12:31.130 ,0,0,0.,24.0,0.,24.0,0.,24.0,0.,24.0
1979-07-27 23:12:55.120 ,1,1,0.,24.0,0.,24.0,0.,24.0,0.,24.0
1979-07-27 23:13:19.120 ,1,0,0.,24.0,0.,24.0,0.,24.0,0.,24.0
1979-07-27 23:13:43.120 ,2,1,0.,24.0,0.,24.0,0.,24.0,0.,24.0
1979-07-27 23:14:07.120 ,2,0,0.,24.0,0.,24.0,0.,24.0,0.,24.0
1979-07-27 23:14:31.120 ,3,1,0.,24.0,0.,24.0,0.,24.0,0.,24.0
1979-07-27 23:14:55.120 ,3,0,0.,24.0,0.,24.0,0.,24.0,0.,24.0
1979-07-27 23:15:19.120 ,4,1,0.,24.0,0.,24.0,0.,24.0,0.,24.0
1979-07-27 23:15:43.120 ,4,0,0.,24.0,0.,24.0,0.,24.0,0.,24.0
1979-07-27 23:16:07.120 ,5,1,0.,24.0,0.,24.0,0.,24.0,0.,24.0
1979-07-27 23:16:31.120 ,5,0,0.,24.0,0.,24.0,0.,24.0,0.,24.0
1979-07-27 23:16:55.120 ,6,1,0.,24.0,0.,24.0,0.,24.0,0.,24.0
1979-07-27 23:17:19.120 ,6,0,0.,24.0,0.,24.0,0.,24.0,0.,24.0
1979-07-27 23:17:43.120 ,7,1,1.,24.0,0.,24.0,0.,24.0,0.,24.0
1979-07-27 23:18:07.120 ,7,0,0.,24.0,0.,24.0,0.,24.0,0.,24.0
1979-07-27 23:18:31.120 ,7,1,1.,24.0,0.,24.0,0.,24.0,0.,24.0
1979-07-27 23:18:55.120 ,7,0,0.,24.0,0.,24.0,0.,24.0,0.,24.0
1979-07-27 23:19:19.120 ,6,1,1.,24.0,0.,24.0,0.,24.0,0.,24.0
1979-07-27 23:19:43.120 ,6,0,0.,24.0,0.,24.0,0.,24.0,0.,24.0
1979-07-27 23:20:07.120 ,5,1,0.,24.0,0.,24.0,0.,24.0,0.,24.0
1979-07-27 23:20:31.120 ,5,0,0.,24.0,0.,24.0,0.,24.0,0.,24.0
1979-07-27 23:20:55.120 ,4,1,0.,24.0,0.,24.0,0.,24.0,0.,24.0
1979-07-27 23:21:19.120 ,4,0,0.,24.0,0.,24.0,0.,24.0,0.,24.0
1979-07-27 23:21:43.120 ,3,1,1.,24.0,0.,24.0,0.,24.0,0.,24.0
1979-07-27 23:22:07.120 ,3,0,0.,24.0,0.,24.0,0.,24.0,0.,24.0
1979-07-27 23:22:31.120 ,2,1,0.,24.0,0.,24.0,0.,24.0,0.,24.0
1979-07-27 23:22:55.120 ,2,0,0.,24.0,0.,24.0,0.,24.0,0.,24.0
1979-07-27 23:23:19.120 ,1,1,0.,24.0,0.,24.0,0.,24.0,0.,24.0
1979-07-27 23:23:43.120 ,1,0,0.,24.0,0.,24.0,0.,24.0,0.,24.0
1979-07-27 23:24:07.120 ,0,1,0.,24.0,0.,24.0,0.,24.0,0.,24.0
1979-07-27 23:24:31.120 ,0,0,0.,24.0,0.,24.0,0.,24.0,0.,24.0
1979-07-27 23:24:55.120 ,0,1,0.,24.0,0.,24.0,0.,24.0,0.,24.0
1979-07-27 23:25:19.120 ,0,0,0.,24.0,0.,24.0,0.,24.0,0.,24.0
1979-07-27 23:25:43.120 ,1,1,0.,24.0,0.,24.0,0.,24.0,0.,24.0
1979-07-27 23:26:07.120 ,1,0,0.,24.0,0.,24.0,0.,24.0,0.,24.0
1979-07-27 23:26:31.120 ,2,1,0.,24.0,0.,24.0,0.,24.0,0.,24.0
1979-07-27 23:26:55.120 ,2,0,0.,24.0,0.,24.0,0.,24.0,0.,24.0
1979-07-27 23:27:19.120 ,3,1,0.,24.0,0.,24.0,0.,24.0,0.,24.0
1979-07-27 23:27:43.120 ,3,0,0.,24.0,0.,24.0,0.,24.0,0.,24.0
1979-07-27 23:28:07.120 ,4,1,0.,24.0,0.,24.0,0.,24.0,0.,24.0
1979-07-27 23:28:31.120 ,4,0,0.,24.0,0.,24.0,0.,24.0,0.,24.0
1979-07-27 23:28:55.120 ,5,1,0.,24.0,0.,24.0,0.,24.0,0.,24.0
1979-07-27 23:29:19.120 ,5,0,0.,24.0,0.,24.0,0.,24.0,0.,24.0
1979-07-27 23:29:43.120 ,6,1,0.,24.0,0.,24.0,0.,24.0,0.,24.0
1979-07-27 23:30:07.120 ,6,0,0.,24.0,0.,24.0,0.,24.0,0.,24.0
1979-07-27 23:30:31.120 ,7,0,0.,24.0,0.,24.0,0.,24.0,0.,24.0
1979-07-27 23:30:55.120 ,7,0,0.,24.0,0.,24.0,0.,24.0,0.,24.0
1979-07-27 23:31:19.120 ,5,1,0.,24.0,0.,24.0,0.,24.0,0.,24.0
1979-07-27 23:31:43.120 ,1,1,0.,24.0,0.,24.0,0.,24.0,0.,24.0
1979-07-27 23:32:07.120 ,2,1,0.,24.0,0.,24.0,0.,24.0,0.,24.0
1979-07-27 23:32:31.120 ,6,1,0.,24.0,0.,24.0,0.,24.0,0.,24.0
1979-07-27 23:32:55.120 ,5,1,0.,24.0,0.,24.0,0.,24.0,0.,24.0
1979-07-27 23:33:19.120 ,1,1,0.,24.0,0.,24.0,0.,24.0,0.,24.0
1979-07-27 23:33:43.120 ,2,1,0.,24.0,0.,24.0,0.,24.0,0.,24.0
1979-07-27 23:34:07.120 ,6,1,0.,24.0,0.,24.0,0.,24.0,0.,24.0
1979-07-27 23:34:31.120 ,5,1,0.,24.0,0.,24.0,0.,24.0,0.,24.0
1979-07-27 23:34:55.120 ,1,1,0.,24.0,0.,24.0,0.,24.0,0.,24.0
1979-07-27 23:35:19.120 ,2,1,0.,24.0,0.,24.0,0.,24.0,0.,24.0